Location: *
(35.2348°S, 91.3916°E)
Time: 04:44:16
(UTC+00:00)

SJ-6B - Pass Details

Date: 23 October 2019
Orbit: 510 x 582 km, 97.6° (Epoch: 12 November)

Event Time Altitude Azimuth Distance (km) Brightness Sun altitude
Rises 14:53:42 0° 178° (S) 2,824 7.0 -29.2°
Reaches altitude 10° 14:56:00 10° 186° (S) 1,908 6.1 -29.5°
Enters shadow 14:59:01 34° 226° (SW) 966 4.5 -30.0°
